SCP
0 0 0 0 0 1 1 1 1 1 1 1 1 1 1 0 0 0 0 0 0 0 0 0 0 0 0 -0 -0 -0 -0 -0 -0 -0 -0 -0 -0 -0 -0 -0 0 0 -0
0 0 0 1 1 1 1 1 1 1 1 1 1 1 1 1 0 0 0 0 0 0 0 0 -0 0 0 0 0 0 -0 -0 -0 -0 -0 -0 -0 -0 -0 -0 -0 0 -0
0 0 1 1 1 1 1 1 1 1 1 1 1 1 1 1 1 0 0 0 0 0 0 0 0 -0 0 0 0 0 0 0 0 0 0 -0 -0 -0 -0 -0 -0 -0 -0
0 0 0 1 1 1 1 1 1 1 1 1 1 1 1 1 1 0 0 0 0 0 0 0 0 0 0 0 0 0 0 0 0 0 0 0 0 -0 -0 -0 -0 -0 -0
0 0 0 1 1 1 1 1 1 1 1 1 1 1 1 1 1 1 0 0 0 0 0 0 0 0 0 0 0 0 0 0 0 0 0 0 0 -0 -0 -0 -0 -0 -0
0 0 0 1 1 1 1 1 1 1 1 1 1 0 1 1 1 1 1 0 0 0 0 0 0 0 0 0 0 0 0 0 0 0 0 0 0 -0 -0 -0 -0 -0 -0
0 1 0 1 1 1 1 1 1 1 1 1 0 1 1 1 1 1 0 0 0 0 0 0 0 0 0 0 0 0 0 0 0 0 0 0 0 -0 -0 -0 -0 -0 -0
1 1 1 1 1 1 1 1 0 0 1 1 0 0 1 0 1 0 0 0 0 0 0 0 0 0 0 0 0 0 0 0 0 0 0 0 0 -0 -0 -0 -0 -0 -0
1 2 1 1 1 1 0 0 0 0 1 1 1 0 0 0 0 0 0 0 0 0 0 0 0 0 0 0 0 0 0 0 0 0 0 0 0 0 0 0 -0 0 0
1 1 1 1 1 1 0 0 0 0 0 0 0 0 0 0 0 0 0 0 0 0 0 0 0 0 0 0 0 0 0 0 0 0 0 0 0 0 0 0 0 0 0
1 1 1 1 1 1 0 0 0 0 0 0 0 0 0 0 0 0 0 0 0 0 0 0 0 0 0 0 0 0 0 0 0 0 0 0 0 0 0 0 0 0 0
1 1 1 1 1 1 0 0 0 0 0 0 0 0 0 0 0 0 0 0 0 0 0 0 0 0 0 0 0 0 0 0 0 0 0 0 0 0 0 0 0 0 0
1 2 1 1 1 1 0 0 0 0 0 0 0 0 0 0 0 0 0 0 0 0 0 0 0 0 0 0 0 0 0 0 0 0 0 0 0 0 0 0 0 0 0
1 1 1 1 1 1 0 1 0 0 0 0 0 0 0 0 0 0 0 0 0 0 0 0 0 0 0 0 0 0 0 0 0 0 0 0 0 0 0 0 0 0 0
1 1 2 1 1 1 1 0 0 0 0 0 0 0 0 0 0 0 0 0 0 0 0 0 0 0 0 0 0 0 0 0 0 0 0 0 0 0 0 0 0 0 0
1 1 1 1 1 1 1 0 0 0 0 0 0 0 0 0 0 0 0 0 0 0 0 0 0 0 0 0 0 0 0 0 0 0 0 0 0 0 0 0 0 0 0
1 2 2 1 1 0 0 0 0 0 0 0 0 0 0 0 0 0 0 0 0 0 0 0 0 0 0 0 0 0 0 0 0 0 0 0 0 0 0 0 0 0 0
1 1 1 1 1 0 0 0 0 0 0 0 0 0 0 0 0 0 0 0 0 0 0 0 0 0 0 0 0 0 0 0 0 0 0 0 0 0 0 0 0 0 0
0 1 1 1 0 0 0 0 0 0 0 0 0 0 0 0 0 0 0 0 0 0 0 0 0 0 0 0 0 0 0 0 0 0 0 0 0 0 0 0 0 0 0
0 1 1 1 0 0 0 0 0 0 0 0 0 0 0 0 0 0 0 0 0 0 0 0 0 0 0 0 0 0 0 0 0 0 0 0 0 0 0 0 0 0 0
0 1 1 0 0 0 0 0 0 0 0 0 0 0 0 0 0 0 0 0 0 0 0 0 0 0 0 0 0 0 0 0 0 0 0 0 0 0 0 0 0 0 0
0 0 1 1 0 0 0 0 0 0 0 0 0 0 0 0 0 0 0 0 0 0 0 0 0 0 0 0 0 0 0 0 0 0 0 0 0 0 0 0 0 0 0
0 0 0 1 0 0 0 0 0 0 0 0 0 0 0 0 0 0 0 0 0 0 0 0 0 0 0 0 0 0 0 0 0 0 0 0 0 0 0 0 0 0 0
0 0 0 0 0 0 0 0 0 0 0 0 0 0 0 0 0 0 0 0 0 0 0 0 0 0 0 0 0 0 0 0 0 0 0 0 0 0 0 0 0 0 0
0 0 0 0 0 0 0 0 0 0 0 0 0 0 0 0 0 0 0 0 0 0 0 0 0 0 0 0 0 0 0 0 0 0 0 0 0 0 0 0 0 0 0
0 0 0 0 0 0 0 0 0 0 0 0 0 0 0 0 0 0 0 0 0 0 0 0 0 0 0 0 0 0 0 0 0 0 0 0 0 0 0 0 0 0 0
Wind_Speed_500mb
34 34 33 56 57 56 58 57 55 53 50 47 45 43 42 38 35 32 29 29 29 27 26 26 20 19 19 15 16 16 13 12 19 21 22 22 22 23 23 22 21 19 20
41 33 32 56 61 59 59 57 55 52 50 47 44 43 41 39 36 33 31 30 29 26 30 28 23 21 17 15 15 14 11 17 21 20 19 19 19 21 21 19 19 19 19
41 46 33 56 64 61 58 54 54 52 51 49 45 44 42 40 37 35 32 29 28 30 31 23 20 19 16 15 13 12 16 19 21 22 20 18 14 18 19 18 16 16 17
39 43 40 59 66 60 57 54 53 53 53 51 48 45 43 40 39 36 34 31 32 31 28 19 18 19 18 16 17 19 19 21 26 22 17 13 9 13 14 15 14 12 12
39 44 44 66 67 62 57 53 52 53 52 53 51 47 43 42 40 38 36 34 34 33 25 20 21 21 21 20 20 19 19 22 24 17 12 9 6 9 10 11 11 9 9
39 40 47 68 66 61 56 53 53 54 53 52 53 50 44 43 40 38 37 37 35 29 23 22 24 25 23 22 20 19 19 21 19 11 14 17 11 8 3 5 4 2 2
41 41 41 63 64 61 57 53 50 51 51 52 53 51 48 42 38 39 40 39 35 27 25 28 27 25 22 19 18 16 16 17 12 16 10 13 12 9 6 3 3 4 4
45 52 45 60 63 61 59 54 53 53 52 51 52 49 50 47 47 43 45 39 34 31 33 31 27 23 20 18 16 16 16 18 18 14 17 12 11 13 9 6 8 8 7
53 58 52 58 66 62 60 58 56 55 51 52 55 56 53 55 53 57 42 35 37 38 33 29 25 22 19 16 15 15 17 20 20 17 22 16 15 16 14 14 13 13 12
63 59 55 60 69 66 63 58 56 55 53 53 57 56 53 56 55 45 41 39 38 34 30 27 24 20 18 17 17 17 19 20 16 20 19 13 13 12 12 11 12 13 14
49 54 57 60 68 69 67 65 61 58 56 54 53 53 56 57 55 46 44 42 38 34 29 25 22 19 18 18 18 18 17 16 16 17 11 10 11 11 11 10 11 13 13
54 57 59 65 74 75 73 71 69 61 56 57 57 54 49 52 52 52 48 43 39 35 30 25 23 23 22 21 20 19 16 16 15 13 10 10 11 12 12 12 14 13 13
60 64 67 72 74 76 79 76 75 72 72 68 62 62 57 57 57 52 50 46 41 35 30 29 28 26 25 23 22 18 16 15 14 14 13 13 12 12 13 14 14 14 13
63 68 69 76 79 81 83 79 78 79 79 74 69 66 66 64 58 54 49 46 42 38 35 32 29 24 22 19 18 17 16 15 16 15 13 12 11 11 13 15 16 15 13
56 69 79 79 85 82 81 81 81 75 72 74 73 71 71 62 58 53 49 47 43 40 36 32 28 25 22 20 19 18 17 16 15 16 14 12 12 13 13 14 16 17 15
61 66 78 81 82 88 89 82 77 71 67 69 73 74 70 61 57 55 53 50 45 41 38 33 29 26 25 23 21 20 19 18 17 18 16 13 13 14 13 15 17 18 16
64 64 72 83 83 88 84 81 78 72 68 66 73 78 68 64 61 57 54 51 47 45 42 38 34 31 29 26 24 23 21 20 19 17 16 15 15 16 17 19 19 19 18
61 70 66 78 87 90 92 87 82 76 72 67 71 73 63 60 60 60 57 54 51 48 44 39 36 34 32 29 27 25 23 21 19 18 17 18 20 19 19 21 20 19 19
61 68 75 78 79 86 93 87 85 80 77 69 68 66 64 64 62 62 61 57 55 50 46 42 41 38 35 32 28 26 25 23 21 21 21 21 21 23 23 22 21 21 21
56 62 57 78 76 85 81 98 89 83 81 74 70 67 64 65 66 65 61 59 57 53 51 50 42 38 35 32 31 29 26 25 24 25 25 24 24 24 28 23 24 22 23
75 67 65 60 81 80 86 85 88 86 83 77 79 77 72 70 67 67 65 63 59 58 56 50 45 43 41 40 36 31 27 26 27 28 28 28 26 26 27 26 28 27 25
79 74 73 70 64 89 87 78 85 92 87 82 85 82 77 73 69 68 71 72 67 65 60 55 52 50 49 46 39 26 17 26 33 31 31 30 30 27 28 29 29 29 28
89 89 87 85 81 75 76 85 83 86 91 91 90 86 83 81 79 76 74 76 75 72 65 60 58 59 58 50 46 27 16 17 22 23 23 24 25 23 25 25 27 29 30
74 76 79 78 78 78 77 79 86 88 95 103 99 95 92 90 85 78 79 80 80 73 69 67 66 62 58 54 51 53 41 20 19 16 20 22 24 26 27 27 30 29 31
57 62 67 66 75 80 75 75 81 91 94 91 97 97 95 93 87 83 85 87 84 79 75 72 70 66 63 60 58 57 57 49 41 33 24 30 31 30 32 33 32 33 35
46 44 50 55 72 78 68 74 80 86 89 91 91 92 98 95 93 91 86 91 88 84 82 78 72 69 67 62 60 59 58 57 54 48 40 37 32 34 34 35 36 38 39
Wind_Direction_500mb
190 230 219 204 201 198 193 188 186 183 182 182 178 177 178 176 174 170 169 165 163 160 157 159 161 160 161 156 142 136 123 97 101 98 85 76 76 82 94 96 94 88 107
194 226 205 205 200 197 193 190 187 186 183 185 182 180 178 177 176 175 173 171 169 168 164 162 165 169 166 158 145 136 117 110 105 94 78 76 80 84 85 79 86 87 92
199 219 219 204 201 198 194 190 188 188 184 185 186 183 180 179 179 180 177 177 176 172 173 179 169 168 168 163 153 137 121 113 106 90 80 62 76 83 82 81 88 91 95
203 224 215 200 201 197 194 191 189 188 188 183 189 187 182 183 183 184 183 182 176 172 179 176 170 165 166 159 144 131 121 116 112 103 110 103 65 86 86 85 87 94 97
195 233 214 196 198 196 196 191 189 190 188 185 187 188 184 185 186 187 187 182 178 182 188 174 164 162 158 149 142 136 126 122 122 122 126 131 101 85 100 83 91 89 81
192 225 208 194 195 197 194 190 187 189 187 188 185 188 183 185 187 190 191 188 187 189 176 174 165 162 156 151 146 141 137 139 139 142 144 157 153 143 133 55 34 91 124
190 217 206 194 192 194 194 191 188 188 189 187 187 187 182 183 188 191 189 187 185 184 182 170 167 163 162 162 159 160 158 157 164 166 173 202 190 218 234 277 273 266 255
190 204 204 196 191 195 196 191 185 187 186 184 184 181 184 183 186 188 185 183 189 184 174 171 170 171 173 174 171 169 168 171 182 187 221 243 242 254 275 267 268 263 262
204 201 199 197 196 197 197 190 184 189 187 183 180 178 180 180 181 184 184 183 180 178 176 177 177 179 182 185 190 192 189 196 216 208 238 242 256 258 267 272 268 266 264
207 203 202 200 194 196 197 192 188 186 185 185 182 183 184 188 187 182 183 180 180 183 183 182 185 191 196 201 205 206 206 216 218 222 242 258 260 262 266 275 280 278 273
207 201 203 198 196 195 195 189 188 185 186 184 183 188 190 187 190 186 186 186 186 185 188 189 193 194 192 191 191 193 201 208 215 231 231 249 264 274 283 287 283 280 279
198 199 204 202 197 197 196 191 184 187 192 195 192 197 196 196 198 189 188 190 187 188 191 191 191 191 189 187 191 197 199 211 219 240 246 254 261 272 280 282 279 279 277
201 202 206 203 201 197 200 194 193 193 194 197 195 196 197 197 200 194 193 191 191 192 193 193 193 196 196 194 199 205 205 220 233 255 259 264 266 271 280 283 283 284 282
206 206 207 207 206 203 202 192 194 191 192 194 197 200 201 203 200 198 197 194 194 196 197 199 202 199 204 206 209 212 219 230 246 255 258 257 263 270 274 279 285 284 278
213 210 211 211 208 207 201 198 196 194 201 196 196 200 203 205 202 198 198 200 198 200 201 204 204 205 208 213 219 226 232 238 243 253 249 254 264 270 274 278 280 282 280
216 217 212 214 211 210 211 205 204 200 207 202 201 203 207 207 205 200 203 204 204 204 206 207 209 211 213 215 222 229 234 238 242 251 256 262 272 278 280 279 281 278 283
214 213 216 216 215 214 213 213 214 213 210 211 210 203 211 205 206 208 209 209 208 209 209 210 212 215 218 221 225 229 233 237 243 251 264 272 279 283 283 280 278 272 269
217 209 217 217 216 218 219 218 215 213 212 213 215 214 216 217 210 212 212 212 212 213 215 216 217 218 219 225 228 230 235 240 248 256 264 276 284 284 284 282 273 268 261
226 228 219 221 217 219 223 223 218 216 215 216 217 222 221 220 220 217 215 214 216 216 217 218 218 220 224 225 228 231 235 241 247 254 261 268 276 280 280 277 272 268 266
224 229 227 217 218 217 226 226 221 218 216 217 218 223 225 226 222 222 220 217 218 219 219 220 219 221 224 226 227 230 233 241 248 256 263 269 271 273 276 273 269 266 262
221 220 226 219 215 212 206 214 218 220 220 218 221 223 223 225 227 223 226 226 222 223 224 224 221 223 222 219 219 220 228 240 248 252 260 264 267 267 266 264 262 262 259
218 223 223 225 217 216 224 225 230 226 222 227 225 224 225 227 229 232 228 229 226 224 221 220 223 222 222 221 219 219 224 236 241 244 249 255 261 262 261 261 261 260 257
227 224 230 227 228 226 224 223 227 229 223 222 224 225 226 227 228 227 231 228 229 227 225 224 228 227 227 220 218 212 196 213 208 228 239 243 254 258 262 261 260 257 256
222 225 226 215 222 224 222 219 218 219 222 224 225 224 225 226 226 226 229 231 230 229 227 227 229 230 229 227 219 221 222 211 193 206 227 240 251 259 262 261 260 258 256
226 233 229 222 216 220 221 224 219 219 224 228 228 227 228 229 230 226 227 231 231 231 231 230 229 228 231 229 225 225 226 229 234 235 239 244 251 259 261 262 262 261 259
237 226 227 217 214 224 224 228 226 222 219 220 227 228 228 227 229 231 228 230 232 231 232 233 232 233 233 236 233 232 235 235 238 237 236 244 252 256 259 261 259 259 258
Wind_Speed_850mb
34 34 33 56 57 56 58 57 55 53 50 47 45 43 42 38 35 32 29 29 29 27 26 26 20 19 19 15 16 16 13 12 19 21 22 22 22 23 23 22 21 19 20
41 33 32 56 61 59 59 57 55 52 50 47 44 43 41 39 36 33 31 30 29 26 30 28 23 21 17 15 15 14 11 17 21 20 19 19 19 21 21 19 19 19 19
41 46 33 56 64 61 58 54 54 52 51 49 45 44 42 40 37 35 32 29 28 30 31 23 20 19 16 15 13 12 16 19 21 22 20 18 14 18 19 18 16 16 17
39 43 40 59 66 60 57 54 53 53 53 51 48 45 43 40 39 36 34 31 32 31 28 19 18 19 18 16 17 19 19 21 26 22 17 13 9 13 14 15 14 12 12
39 44 44 66 67 62 57 53 52 53 52 53 51 47 43 42 40 38 36 34 34 33 25 20 21 21 21 20 20 19 19 22 24 17 12 9 6 9 10 11 11 9 9
39 40 47 68 66 61 56 53 53 54 53 52 53 50 44 43 40 38 37 37 35 29 23 22 24 25 23 22 20 19 19 21 19 11 14 17 11 8 3 5 4 2 2
41 41 41 63 64 61 57 53 50 51 51 52 53 51 48 42 38 39 40 39 35 27 25 28 27 25 22 19 18 16 16 17 12 16 10 13 12 9 6 3 3 4 4
45 52 45 60 63 61 59 54 53 53 52 51 52 49 50 47 47 43 45 39 34 31 33 31 27 23 20 18 16 16 16 18 18 14 17 12 11 13 9 6 8 8 7
53 58 52 58 66 62 60 58 56 55 51 52 55 56 53 55 53 57 42 35 37 38 33 29 25 22 19 16 15 15 17 20 20 17 22 16 15 16 14 14 13 13 12
63 59 55 60 69 66 63 58 56 55 53 53 57 56 53 56 55 45 41 39 38 34 30 27 24 20 18 17 17 17 19 20 16 20 19 13 13 12 12 11 12 13 14
49 54 57 60 68 69 67 65 61 58 56 54 53 53 56 57 55 46 44 42 38 34 29 25 22 19 18 18 18 18 17 16 16 17 11 10 11 11 11 10 11 13 13
54 57 59 65 74 75 73 71 69 61 56 57 57 54 49 52 52 52 48 43 39 35 30 25 23 23 22 21 20 19 16 16 15 13 10 10 11 12 12 12 14 13 13
60 64 67 72 74 76 79 76 75 72 72 68 62 62 57 57 57 52 50 46 41 35 30 29 28 26 25 23 22 18 16 15 14 14 13 13 12 12 13 14 14 14 13
63 68 69 76 79 81 83 79 78 79 79 74 69 66 66 64 58 54 49 46 42 38 35 32 29 24 22 19 18 17 16 15 16 15 13 12 11 11 13 15 16 15 13
56 69 79 79 85 82 81 81 81 75 72 74 73 71 71 62 58 53 49 47 43 40 36 32 28 25 22 20 19 18 17 16 15 16 14 12 12 13 13 14 16 17 15
61 66 78 81 82 88 89 82 77 71 67 69 73 74 70 61 57 55 53 50 45 41 38 33 29 26 25 23 21 20 19 18 17 18 16 13 13 14 13 15 17 18 16
64 64 72 83 83 88 84 81 78 72 68 66 73 78 68 64 61 57 54 51 47 45 42 38 34 31 29 26 24 23 21 20 19 17 16 15 15 16 17 19 19 19 18
61 70 66 78 87 90 92 87 82 76 72 67 71 73 63 60 60 60 57 54 51 48 44 39 36 34 32 29 27 25 23 21 19 18 17 18 20 19 19 21 20 19 19
61 68 75 78 79 86 93 87 85 80 77 69 68 66 64 64 62 62 61 57 55 50 46 42 41 38 35 32 28 26 25 23 21 21 21 21 21 23 23 22 21 21 21
56 62 57 78 76 85 81 98 89 83 81 74 70 67 64 65 66 65 61 59 57 53 51 50 42 38 35 32 31 29 26 25 24 25 25 24 24 24 28 23 24 22 23
75 67 65 60 81 80 86 85 88 86 83 77 79 77 72 70 67 67 65 63 59 58 56 50 45 43 41 40 36 31 27 26 27 28 28 28 26 26 27 26 28 27 25
79 74 73 70 64 89 87 78 85 92 87 82 85 82 77 73 69 68 71 72 67 65 60 55 52 50 49 46 39 26 17 26 33 31 31 30 30 27 28 29 29 29 28
89 89 87 85 81 75 76 85 83 86 91 91 90 86 83 81 79 76 74 76 75 72 65 60 58 59 58 50 46 27 16 17 22 23 23 24 25 23 25 25 27 29 30
74 76 79 78 78 78 77 79 86 88 95 103 99 95 92 90 85 78 79 80 80 73 69 67 66 62 58 54 51 53 41 20 19 16 20 22 24 26 27 27 30 29 31
57 62 67 66 75 80 75 75 81 91 94 91 97 97 95 93 87 83 85 87 84 79 75 72 70 66 63 60 58 57 57 49 41 33 24 30 31 30 32 33 32 33 35
46 44 50 55 72 78 68 74 80 86 89 91 91 92 98 95 93 91 86 91 88 84 82 78 72 69 67 62 60 59 58 57 54 48 40 37 32 34 34 35 36 38 39
Wind_Direction_850mb
190 230 219 204 201 198 193 188 186 183 182 182 178 177 178 176 174 170 169 165 163 160 157 159 161 160 161 156 142 136 123 97 101 98 85 76 76 82 94 96 94 88 107
194 226 205 205 200 197 193 190 187 186 183 185 182 180 178 177 176 175 173 171 169 168 164 162 165 169 166 158 145 136 117 110 105 94 78 76 80 84 85 79 86 87 92
199 219 219 204 201 198 194 190 188 188 184 185 186 183 180 179 179 180 177 177 176 172 173 179 169 168 168 163 153 137 121 113 106 90 80 62 76 83 82 81 88 91 95
203 224 215 200 201 197 194 191 189 188 188 183 189 187 182 183 183 184 183 182 176 172 179 176 170 165 166 159 144 131 121 116 112 103 110 103 65 86 86 85 87 94 97
195 233 214 196 198 196 196 191 189 190 188 185 187 188 184 185 186 187 187 182 178 182 188 174 164 162 158 149 142 136 126 122 122 122 126 131 101 85 100 83 91 89 81
192 225 208 194 195 197 194 190 187 189 187 188 185 188 183 185 187 190 191 188 187 189 176 174 165 162 156 151 146 141 137 139 139 142 144 157 153 143 133 55 34 91 124
190 217 206 194 192 194 194 191 188 188 189 187 187 187 182 183 188 191 189 187 185 184 182 170 167 163 162 162 159 160 158 157 164 166 173 202 190 218 234 277 273 266 255
190 204 204 196 191 195 196 191 185 187 186 184 184 181 184 183 186 188 185 183 189 184 174 171 170 171 173 174 171 169 168 171 182 187 221 243 242 254 275 267 268 263 262
204 201 199 197 196 197 197 190 184 189 187 183 180 178 180 180 181 184 184 183 180 178 176 177 177 179 182 185 190 192 189 196 216 208 238 242 256 258 267 272 268 266 264
207 203 202 200 194 196 197 192 188 186 185 185 182 183 184 188 187 182 183 180 180 183 183 182 185 191 196 201 205 206 206 216 218 222 242 258 260 262 266 275 280 278 273
207 201 203 198 196 195 195 189 188 185 186 184 183 188 190 187 190 186 186 186 186 185 188 189 193 194 192 191 191 193 201 208 215 231 231 249 264 274 283 287 283 280 279
198 199 204 202 197 197 196 191 184 187 192 195 192 197 196 196 198 189 188 190 187 188 191 191 191 191 189 187 191 197 199 211 219 240 246 254 261 272 280 282 279 279 277
201 202 206 203 201 197 200 194 193 193 194 197 195 196 197 197 200 194 193 191 191 192 193 193 193 196 196 194 199 205 205 220 233 255 259 264 266 271 280 283 283 284 282
206 206 207 207 206 203 202 192 194 191 192 194 197 200 201 203 200 198 197 194 194 196 197 199 202 199 204 206 209 212 219 230 246 255 258 257 263 270 274 279 285 284 278
213 210 211 211 208 207 201 198 196 194 201 196 196 200 203 205 202 198 198 200 198 200 201 204 204 205 208 213 219 226 232 238 243 253 249 254 264 270 274 278 280 282 280
216 217 212 214 211 210 211 205 204 200 207 202 201 203 207 207 205 200 203 204 204 204 206 207 209 211 213 215 222 229 234 238 242 251 256 262 272 278 280 279 281 278 283
214 213 216 216 215 214 213 213 214 213 210 211 210 203 211 205 206 208 209 209 208 209 209 210 212 215 218 221 225 229 233 237 243 251 264 272 279 283 283 280 278 272 269
217 209 217 217 216 218 219 218 215 213 212 213 215 214 216 217 210 212 212 212 212 213 215 216 217 218 219 225 228 230 235 240 248 256 264 276 284 284 284 282 273 268 261
226 228 219 221 217 219 223 223 218 216 215 216 217 222 221 220 220 217 215 214 216 216 217 218 218 220 224 225 228 231 235 241 247 254 261 268 276 280 280 277 272 268 266
224 229 227 217 218 217 226 226 221 218 216 217 218 223 225 226 222 222 220 217 218 219 219 220 219 221 224 226 227 230 233 241 248 256 263 269 271 273 276 273 269 266 262
221 220 226 219 215 212 206 214 218 220 220 218 221 223 223 225 227 223 226 226 222 223 224 224 221 223 222 219 219 220 228 240 248 252 260 264 267 267 266 264 262 262 259
218 223 223 225 217 216 224 225 230 226 222 227 225 224 225 227 229 232 228 229 226 224 221 220 223 222 222 221 219 219 224 236 241 244 249 255 261 262 261 261 261 260 257
227 224 230 227 228 226 224 223 227 229 223 222 224 225 226 227 228 227 231 228 229 227 225 224 228 227 227 220 218 212 196 213 208 228 239 243 254 258 262 261 260 257 256
222 225 226 215 222 224 222 219 218 219 222 224 225 224 225 226 226 226 229 231 230 229 227 227 229 230 229 227 219 221 222 211 193 206 227 240 251 259 262 261 260 258 256
226 233 229 222 216 220 221 224 219 219 224 228 228 227 228 229 230 226 227 231 231 231 231 230 229 228 231 229 225 225 226 229 234 235 239 244 251 259 261 262 262 261 259
237 226 227 217 214 224 224 228 226 222 219 220 227 228 228 227 229 231 228 230 232 231 232 233 232 233 233 236 233 232 235 235 238 237 236 244 252 256 259 261 259 259 258